User: anonymous   Login
Location: Unspecified
(0.0000°N, 0.0000°E)
Time: 12:14:58
(UTC+00:00)
Language:

deb r/b Ablestar - Orbit

View from above orbital plane
View from above orbital plane
View from above satellite
View from above satellite

Ground track
Ground track

The orbit data is extracted from the following two-line orbital elements,

1 00335U 61015DM  14351.56819112  .00001883  00000-0  99374-3 0  3608
2 00335 066.8431 040.1097 0038871 025.4946 122.9974 14.15661682732252
Epoch (UTC): 17 December 2014 13:38:11
Eccentricity: 0.0038871
inclination: 66.8431°
perigee height: 812 km
apogee height: 868 km
right ascension of ascending node: 40.1097°
argument of perigee: 25.4946°
revolutions per day: 14.15661682
mean anomaly at epoch: 122.9974°
orbit number at epoch: 73225

The dashed part of the orbit path shows where the satellite is in the earth's shadow,  

DLR